FW7227 Weather Reports


time (UTC)temp
F
wind
direction
speed
knots
gust
knots
rain 1hr
in
rain 24hr
in
rain mn
in
humidity
%
barometer
mb
20260903072057 64 237 5.2 11.3 0.00 0.00 0.00 71 1016.5
20260903071609 64 225 4.3 13.0 0.00 0.00 0.00 72 1016.5
20260903071056 64 234 4.3 13.0 0.00 0.00 0.00 71 1016.7
20260903070559 63 175 5.2 13.0 0.00 0.00 0.00 72 1016.8
20260903070109 63 229 2.6 9.6 0.00 0.00 0.00 72 1016.9
20260903065557 63 191 5.2 9.6 0.00 0.00 0.00 73 1016.8
20260903065057 63 225 2.6 7.0 0.00 0.00 0.00 74 1016.7
20260903064607 63 214 3.5 8.7 0.00 0.00 0.00 74 1016.6
20260903064056 62 211 3.5 8.7 0.00 0.00 0.00 74 1016.7
20260903063556 62 246 3.5 7.8 0.00 0.00 0.00 74 1016.7
20260903063105 62 221 3.5 7.8 0.00 0.00 0.00 76 1016.5
20260903062556 62 217 2.6 7.8 0.00 0.00 0.00 76 1016.5
20260903062058 61 230 2.6 7.8 0.00 0.00 0.00 77 1016.7
20260903061613 61 230 2.6 7.8 0.00 0.00 0.00 77 1016.7
20260903061057 61 211 1.7 6.1 0.00 0.00 0.00 78 1016.8
20260903060557 61 0 0.9 4.3 0.00 0.00 0.00 79 1016.6
20260903060109 61 0 0.9 4.3 0.00 0.00 0.00 78 1016.8
20260903055558 61 176 1.7 5.2 0.00 0.00 0.00 79 1016.8
20260903055057 61 175 1.7 5.2 0.00 0.00 0.00 79 1016.8
20260903054607 61 184 1.7 5.2 0.00 0.00 0.00 79 1017.0
20260903054057 61 0 0.9 6.1 0.00 0.00 0.00 79 1017.1
20260903053558 61 190 1.7 10.4 0.00 0.00 0.00 79 1017.3
20260903053114 61 241 3.5 11.3 0.00 0.00 0.00 78 1017.5
20260903052557 61 244 5.2 11.3 0.00 0.00 0.00 78 1017.6
20260903052059 60 240 4.3 9.6 0.00 0.00 0.00 77 1017.7
20260903051559 60 221 2.6 7.0 0.00 0.00 0.00 78 1017.6
20260903051058 60 208 2.6 6.1 0.00 0.00 0.00 79 1017.5
20260903050557 60 220 2.6 6.1 0.00 0.00 0.00 79 1017.5
20260903050107 60 221 2.6 5.2 0.00 0.00 0.00 80 1017.5
20260903045558 60 217 2.6 6.1 0.00 0.00 0.00 80 1017.6
20260903045057 60 219 1.7 6.1 0.00 0.00 0.00 80 1017.5
20260903044608 60 205 2.6 6.1 0.00 0.00 0.00 80 1017.5
20260903044058 60 211 2.6 6.1 0.00 0.00 0.00 80 1017.6
20260903043556 60 202 1.7 6.1 0.00 0.00 0.00 80 1017.6
20260903043103 59 201 1.7 6.1 0.00 0.00 0.00 81 1017.6
20260903042557 59 204 1.7 6.1 0.00 0.00 0.00 81 1017.6
20260903042057 59 217 1.7 6.1 0.00 0.00 0.00 81 1017.7
20260903041600 60 217 1.7 5.2 0.00 0.00 0.00 81 1017.6
20260903041057 60 217 2.6 5.2 0.00 0.00 0.00 81 1017.7
20260903040558 60 214 1.7 6.1 0.00 0.00 0.00 81 1017.7
20260903040114 60 207 2.6 7.0 0.00 0.00 0.00 81 1017.7
20260903035557 59 216 2.6 7.0 0.00 0.00 0.00 80 1017.7
20260903035057 59 223 2.6 7.0 0.00 0.00 0.00 80 1017.7
20260903034603 59 195 1.7 7.0 0.00 0.00 0.00 80 1017.6
20260903034057 59 214 3.5 7.0 0.00 0.00 0.00 80 1017.7
20260903033557 59 203 2.6 7.8 0.00 0.00 0.00 81 1017.8
20260903033100 59 201 3.5 7.8 0.00 0.00 0.00 81 1017.8
20260903032558 59 215 3.5 6.1 0.00 0.00 0.00 81 1017.8
20260903032057 58 222 2.6 6.1 0.00 0.00 0.00 82 1017.8
20260903031624 58 209 2.6 5.2 0.00 0.00 0.00 82 1017.9
20260903031057 58 209 1.7 5.2 0.00 0.00 0.00 82 1017.9
20260903030557 58 217 1.7 5.2 0.00 0.00 0.00 83 1017.9
20260903030116 58 196 1.7 4.3 0.00 0.00 0.00 83 1018.0
20260903025557 58 197 1.7 4.3 0.00 0.00 0.00 82 1018.1
20260903025057 58 196 0.9 4.3 0.00 0.00 0.00 82 1018.1
20260903024602 58 196 0.9 2.6 0.00 0.00 0.00 81 1018.0
20260903024056 58 0 0.9 2.6 0.00 0.00 0.00 81 1018.0
20260903023556 58 196 0.9 2.6 0.00 0.00 0.00 81 1018.1
20260903023104 58 0 0.9 2.6 0.00 0.00 0.00 81 1018.1
20260903022600 58 0 0.0 2.6 0.00 0.00 0.00 81 1018.3
20260903022057 58 196 0.9 3.5 0.00 0.00 0.00 81 1018.3
20260903021603 59 0 0.9 3.5 0.00 0.00 0.00 81 1018.3
20260903021058 59 196 0.9 3.5 0.00 0.00 0.00 81 1018.3
20260903020557 59 198 0.9 2.6 0.00 0.00 0.00 81 1018.4
20260903020103 59 0 0.0 2.6 0.00 0.00 0.00 81 1018.5
20260903015557 59 0 0.0 2.6 0.00 0.00 0.00 81 1018.6
20260903015057 59 198 0.0 2.6 0.00 0.00 0.00 81 1018.5
20260903014611 59 198 0.0 2.6 0.00 0.00 0.00 81 1018.6
20260903014100 59 198 0.0 2.6 0.00 0.00 0.00 81 1018.6
20260903013600 59 0 0.0 2.6 0.00 0.00 0.00 81 1018.6
20260903013102 59 0 0.9 3.5 0.00 0.00 0.00 81 1018.6
20260903012557 59 198 0.0 3.5 0.00 0.00 0.00 81 1018.6
20260903012056 59 198 0.9 3.5 0.00 0.00 0.00 81 1018.7
20260903011622 59 197 0.9 3.5 0.00 0.00 0.00 81 1018.8
20260903011058 59 198 0.9 2.6 0.00 0.00 0.00 81 1018.8
20260903010557 59 198 0.9 3.5 0.00 0.00 0.00 81 1018.8
20260903010119 59 0 0.9 3.5 0.00 0.00 0.00 81 1018.8
20260903005557 59 200 0.9 2.6 0.00 0.00 0.00 81 1018.7
20260903005057 59 0 0.0 2.6 0.00 0.00 0.00 81 1018.8
20260903004601 59 0 0.0 0.0 0.00 0.00 0.00 81 1018.7
20260903004057 58 0 0.0 2.6 0.00 0.00 0.00 81 1018.8
20260903003616 58 0 0.0 3.5 0.00 0.00 0.00 81 1018.8
20260903003105 58 203 0.9 3.5 0.00 0.00 0.00 81 1018.9
20260903002557 58 0 0.9 4.3 0.00 0.00 0.00 81 1019.0
20260903002058 58 203 0.9 4.3 0.00 0.00 0.00 80 1019.0
20260903001606 58 203 0.9 4.3 0.00 0.00 0.00 81 1019.1
20260903001100 58 204 1.7 4.3 0.00 0.00 0.00 80 1019.1
20260903000558 58 205 0.9 4.3 0.00 0.00 0.00 80 1019.1
20260903000103 59 205 1.7 4.3 0.00 0.00 0.00 80 1019.1
20260902235557 59 205 0.9 3.5 0.00 0.00 0.00 80 1019.2
20260902235057 59 205 1.7 3.5 0.00 0.00 0.00 80 1019.1
20260902234605 59 206 1.7 4.3 0.00 0.00 0.00 80 1019.2
20260902234058 59 206 1.7 5.2 0.00 0.00 0.00 80 1019.2
20260902233558 59 206 1.7 5.2 0.00 0.00 0.00 80 1019.3
20260902233102 59 207 1.7 5.2 0.00 0.00 0.00 80 1019.3
20260902232558 59 200 1.7 4.3 0.00 0.00 0.00 79 1019.3
20260902232058 59 202 1.7 5.2 0.00 0.00 0.00 79 1019.3
20260902231611 59 206 1.7 5.2 0.00 0.00 0.00 79 1019.3
20260902231058 59 207 1.7 5.2 0.00 0.00 0.00 79 1019.4
20260902230602 59 208 1.7 5.2 0.00 0.00 0.00 79 1019.4
20260902230110 59 212 1.7 5.2 0.00 0.00 0.00 79 1019.4
20260902225557 59 214 1.7 5.2 0.00 0.00 0.00 79 1019.5
20260902225104 59 215 1.7 3.5 0.00 0.00 0.00 79 1019.5
20260902224608 59 215 0.0 3.5 0.00 0.00 0.00 79 1019.5
20260902224102 59 215 0.9 3.5 0.00 0.00 0.00 79 1019.5
20260902223558 59 216 0.9 3.5 0.00 0.00 0.00 79 1019.4
20260902223102 59 217 0.9 4.3 0.00 0.00 0.00 79 1019.5
20260902222558 59 214 0.9 4.3 0.00 0.00 0.00 79 1019.6
20260902222057 59 215 1.7 4.3 0.00 0.00 0.00 79 1019.6
20260902221628 59 223 0.9 4.3 0.00 0.00 0.00 79 1019.7
20260902221059 59 224 1.7 4.3 0.00 0.00 0.00 80 1019.6
20260902220558 59 263 0.9 3.5 0.00 0.00 0.00 80 1019.6
20260902220110 59 263 1.7 3.5 0.00 0.00 0.00 80 1019.5
20260902215558 59 263 1.7 3.5 0.00 0.00 0.00 79 1019.5
20260902215058 59 263 0.9 3.5 0.00 0.00 0.00 78 1019.5
20260902214609 60 0 0.9 3.5 0.00 0.00 0.00 77 1019.6
20260902214100 60 263 0.9 3.5 0.00 0.00 0.00 76 1019.6
20260902213558 60 263 0.9 3.5 0.00 0.00 0.00 76 1019.6
20260902213100 61 0 0.0 3.5 0.00 0.00 0.00 76 1019.5
20260902212558 61 263 0.0 2.6 0.00 0.00 0.00 75 1019.5
20260902212057 61 263 0.0 2.6 0.00 0.00 0.00 75 1019.5
20260902211558 61 0 1.7 2.6 0.00 0.00 0.00 74 1019.5
20260902211056 61 263 0.0 1.7 0.00 0.00 0.00 74 1019.5
20260902210600 61 263 0.9 2.6 0.00 0.00 0.00 73 1019.5
20260902210103 61 263 0.9 3.5 0.00 0.00 0.00 73 1019.5
20260902205601 61 263 0.9 3.5 0.00 0.00 0.00 73 1019.5
20260902205056 61 263 1.7 5.2 0.00 0.00 0.00 73 1019.5
20260902204604 61 263 1.7 5.2 0.00 0.00 0.00 73 1019.6
20260902204056 61 265 1.7 5.2 0.00 0.00 0.00 73 1019.6
20260902203556 61 269 1.7 5.2 0.00 0.00 0.00 72 1019.6
20260902203058 62 270 2.6 6.1 0.00 0.00 0.00 72 1019.5
20260902202557 62 263 2.6 6.1 0.00 0.00 0.00 72 1019.5
20260902202057 62 273 3.5 7.0 0.00 0.00 0.00 72 1019.5
20260902201606 61 255 3.5 7.0 0.00 0.00 0.00 73 1019.5
20260902201056 60 265 3.5 7.0 0.00 0.00 0.00 74 1019.5
20260902200557 60 256 3.5 6.1 0.00 0.00 0.00 75 1019.6
20260902200105 60 259 2.6 6.1 0.00 0.00 0.00 74 1019.5
20260902195557 60 247 2.6 6.1 0.00 0.00 0.00 74 1019.4
20260902195056 60 248 2.6 6.1 0.00 0.00 0.00 74 1019.3
20260902194605 60 242 1.7 4.3 0.00 0.00 0.00 74 1019.3
20260902194056 61 240 1.7 4.3 0.00 0.00 0.00 75 1019.3
20260902193557 61 239 1.7 6.1 0.00 0.00 0.00 74 1019.3
20260902193108 61 236 2.6 6.1 0.00 0.00 0.00 74 1019.3
20260902192559 61 233 1.7 4.3 0.00 0.00 0.00 74 1019.2
20260902192056 61 230 1.7 4.3 0.00 0.00 0.00 74 1019.3
20260902191634 61 230 2.6 4.3 0.00 0.00 0.00 74 1019.2
20260902191059 61 230 1.7 3.5 0.00 0.00 0.00 73 1019.2
20260902190558 61 232 1.7 3.5 0.00 0.00 0.00 73 1019.1
20260902185558 61 236 0.9 3.5 0.00 0.00 0.00 74 1019.1
20260902185101 62 236 1.7 3.5 0.00 0.00 0.00 73 1019.1
20260902184558 62 236 1.7 3.5 0.00 0.00 0.00 73 1018.9
20260902184056 62 236 1.7 3.5 0.00 0.00 0.00 72 1018.9
20260902183559 63 236 1.7 3.5 0.00 0.00 0.00 71 1018.9
20260902183127 63 237 1.7 4.3 0.00 0.00 0.00 70 1018.8
20260902182555 64 237 1.7 4.3 0.00 0.00 0.00 69 1018.8
20260902182056 64 238 1.7 4.3 0.00 0.00 0.00 68 1018.7
20260902181612 64 241 2.6 4.3 0.00 0.00 0.00 67 1018.7
20260902181055 65 246 2.6 4.3 0.00 0.00 0.00 66 1018.7
20260902180556 65 248 1.7 4.3 0.00 0.00 0.00 66 1018.7
20260902180104 65 248 1.7 4.3 0.00 0.00 0.00 65 1018.7
20260902175557 66 248 1.7 4.3 0.00 0.00 0.00 64 1018.7
20260902175057 66 248 1.7 3.5 0.00 0.00 0.00 63 1018.7
20260902174611 67 248 1.7 4.3 0.00 0.00 0.00 61 1018.6
20260902174057 67 248 1.7 7.0 0.00 0.00 0.00 60 1018.6
20260902173558 67 248 2.6 7.0 0.00 0.00 0.00 60 1018.5
20260902173113 67 252 3.5 7.8 0.00 0.00 0.00 59 1018.6
20260902172558 68 265 3.5 8.7 0.00 0.00 0.00 59 1018.6
20260902172058 68 252 3.5 8.7 0.00 0.00 0.00 59 1018.6
20260902171619 68 270 3.5 9.6 0.00 0.00 0.00 58 1018.5
20260902171058 68 244 4.3 9.6 0.00 0.00 0.00 57 1018.5
20260902170557 68 276 4.3 8.7 0.00 0.00 0.00 57 1018.5
20260902170103 69 256 3.5 11.3 0.00 0.00 0.00 57 1018.5
20260902165558 69 265 4.3 11.3 0.00 0.00 0.00 56 1018.5
20260902165058 69 261 5.2 8.7 0.00 0.00 0.00 56 1018.4
20260902164611 69 264 2.6 8.7 0.00 0.00 0.00 56 1018.4
20260902164057 69 267 4.3 12.2 0.00 0.00 0.00 55 1018.5
20260902163557 70 242 4.3 12.2 0.00 0.00 0.00 54 1018.4
20260902163106 70 271 5.2 12.2 0.00 0.00 0.00 54 1018.5
20260902162557 71 256 5.2 9.6 0.00 0.00 0.00 53 1018.4
20260902162058 71 274 5.2 9.6 0.00 0.00 0.00 55 1018.5
20260902161606 71 257 3.5 8.7 0.00 0.00 0.00 53 1018.5
20260902161057 71 260 3.5 9.6 0.00 0.00 0.00 53 1018.5
20260902160557 71 284 5.2 9.6 0.00 0.00 0.00 53 1018.5
20260902160116 70 267 4.3 11.3 0.00 0.00 0.00 53 1018.5
20260902155557 70 236 4.3 11.3 0.00 0.00 0.00 54 1018.5
20260902155057 71 246 6.1 11.3 0.00 0.00 0.00 53 1018.5
20260902154609 71 260 7.0 12.2 0.00 0.00 0.00 52 1018.5
20260902154103 71 243 6.1 12.2 0.00 0.00 0.00 52 1018.5
20260902153557 72 270 4.3 9.6 0.00 0.00 0.00 53 1018.5
20260902153101 72 243 1.7 12.2 0.00 0.00 0.00 53 1018.5
20260902152557 72 246 6.1 12.2 0.00 0.00 0.00 53 1018.6
20260902152059 72 246 6.1 12.2 0.00 0.00 0.00 53 1018.6
20260902151601 72 259 7.0 10.4 0.00 0.00 0.00 52 1018.6
20260902151057 73 279 3.5 7.8 0.00 0.00 0.00 53 1018.6
20260902150556 72 249 3.5 7.8 0.00 0.00 0.00 55 1018.7
20260902150109 71 288 1.7 7.8 0.00 0.00 0.00 56 1018.7
20260902145621 71 339 4.3 7.8 0.00 0.00 0.00 55 1018.7
20260902145057 71 284 3.5 7.8 0.00 0.00 0.00 56 1018.7
20260902144605 71 269 2.6 7.0 0.00 0.00 0.00 57 1018.8
20260902144057 70 263 3.5 7.8 0.00 0.00 0.00 58 1018.9
20260902143558 71 261 1.7 7.8 0.00 0.00 0.00 59 1018.9
20260902143109 70 282 0.9 8.7 0.00 0.00 0.00 61 1018.9
20260902142557 70 296 3.5 9.6 0.00 0.00 0.00 60 1019.0
20260902142057 70 332 5.2 9.6 0.00 0.00 0.00 60 1019.0
20260902141602 70 352 1.7 7.0 0.00 0.00 0.00 62 1019.1
20260902141057 70 302 2.6 7.8 0.00 0.00 0.00 62 1019.0
20260902140558 70 309 2.6 7.8 0.00 0.00 0.00 62 1019.0
20260902140100 70 340 1.7 7.8 0.00 0.00 0.00 61 1018.9
20260902135556 70 0 1.7 7.8 0.00 0.00 0.00 63 1019.0
20260902135057 70 254 3.5 8.7 0.00 0.00 0.00 62 1019.1
20260902134606 71 261 4.3 10.4 0.00 0.00 0.00 61 1018.9
20260902134057 71 257 6.1 10.4 0.00 0.00 0.00 61 1019.0
20260902133557 71 247 3.5 9.6 0.00 0.00 0.00 62 1019.0
20260902133108 70 291 3.5 9.6 0.00 0.00 0.00 64 1019.1
20260902132558 70 252 2.6 8.7 0.00 0.00 0.00 63 1019.2
20260902132057 70 0 3.5 8.7 0.00 0.00 0.00 64 1019.2
20260902131602 70 279 4.3 10.4 0.00 0.00 0.00 63 1019.2
20260902131058 70 224 2.6 10.4 0.00 0.00 0.00 64 1019.2
20260902130556 71 235 5.2 9.6 0.00 0.00 0.00 63 1019.2
20260902130105 70 239 4.3 9.6 0.00 0.00 0.00 66 1019.2
20260902125556 69 215 5.2 9.6 0.00 0.00 0.00 66 1019.4
20260902125100 68 247 4.3 10.4 0.00 0.00 0.00 69 1019.4
20260902124604 68 229 7.0 11.3 0.00 0.00 0.00 68 1019.5
20260902124100 68 222 7.0 11.3 0.00 0.00 0.00 67 1019.6
20260902123557 70 236 3.5 8.7 0.00 0.00 0.00 68 1019.5
20260902123107 69 360 3.5 9.6 0.00 0.00 0.00 68 1019.5
20260902122559 69 232 5.2 9.6 0.00 0.00 0.00 68 1019.5
20260902122056 68 252 6.1 10.4 0.00 0.00 0.00 68 1019.5
20260902121600 68 250 6.1 10.4 0.00 0.00 0.00 71 1019.6
20260902121058 68 278 5.2 10.4 0.00 0.00 0.00 70 1019.5
20260902120558 68 279 5.2 10.4 0.00 0.00 0.00 70 1019.5
20260902120059 68 247 5.2 11.3 0.00 0.00 0.00 72 1019.6
20260902115556 67 273 7.0 11.3 0.00 0.00 0.00 72 1019.6
20260902115056 67 268 7.0 11.3 0.00 0.00 0.00 72 1019.6
20260902114606 66 254 4.3 9.6 0.00 0.00 0.00 74 1019.6
20260902114058 66 286 5.2 10.4 0.00 0.00 0.00 74 1019.6
20260902113556 65 302 2.6 10.4 0.00 0.00 0.00 75 1019.7
20260902113106 65 275 6.1 10.4 0.00 0.00 0.00 75 1019.7
20260902112558 65 274 5.2 10.4 0.00 0.00 0.00 76 1019.7
20260902112057 65 266 3.5 10.4 0.00 0.00 0.00 77 1019.7
20260902111607 66 256 4.3 10.4 0.00 0.00 0.00 75 1019.7
20260902111057 66 282 5.2 10.4 0.00 0.00 0.00 73 1019.7
20260902110557 67 243 7.0 12.2 0.00 0.00 0.00 71 1019.7
20260902110103 68 262 5.2 12.2 0.00 0.00 0.00 71 1019.7
20260902105556 68 232 6.1 12.2 0.00 0.00 0.00 70 1019.8
20260902105056 68 278 4.3 10.4 0.00 0.00 0.00 71 1019.7
20260902104615 68 261 4.3 10.4 0.00 0.00 0.00 70 1019.8
20260902104056 67 265 4.3 10.4 0.00 0.00 0.00 72 1019.8
20260902103556 66 273 2.6 8.7 0.00 0.00 0.00 72 1019.8
20260902103105 66 235 3.5 10.4 0.00 0.00 0.00 72 1019.9
20260902102558 66 250 5.2 10.4 0.00 0.00 0.00 72 1019.8
20260902102058 66 247 3.5 7.8 0.00 0.00 0.00 72 1019.9
20260902101600 66 242 2.6 7.0 0.00 0.00 0.00 72 1019.9
20260902101057 66 254 3.5 8.7 0.00 0.00 0.00 72 1019.9
20260902100557 67 229 2.6 10.4 0.00 0.00 0.00 72 1019.9
20260902100101 68 219 1.7 10.4 0.00 0.00 0.00 72 1019.8
20260902095557 68 228 5.2 10.4 0.00 0.00 0.00 71 1019.9
20260902095056 67 269 3.5 7.0 0.00 0.00 0.00 76 1019.8
20260902094607 65 196 3.5 6.1 0.00 0.00 0.00 80 1019.9
20260902094057 64 185 0.9 2.6 0.00 0.00 0.00 81 1019.8
20260902093600 64 0 0.9 2.6 0.00 0.00 0.00 81 1019.9
20260902093106 63 185 0.9 2.6 0.00 0.00 0.00 81 1019.9
20260902092557 63 185 0.0 4.3 0.00 0.00 0.00 82 1019.9
20260902092100 63 185 0.9 4.3 0.00 0.00 0.00 82 1019.8
20260902091603 62 185 0.9 3.5 0.00 0.00 0.00 84 1019.9
20260902091057 62 185 0.0 3.5 0.00 0.00 0.00 85 1019.8
20260902090557 61 185 1.7 3.5 0.00 0.00 0.00 85 1019.8
20260902090120 61 185 0.9 3.5 0.00 0.00 0.00 86 1019.9
20260902085557 61 185 1.7 3.5 0.00 0.00 0.00 86 1019.9
20260902085056 61 185 0.9 3.5 0.00 0.00 0.00 87 1019.9
20260902084604 60 185 0.9 3.5 0.00 0.00 0.00 88 1019.9
20260902084057 60 185 0.9 3.5 0.00 0.00 0.00 87 1020.0
20260902083557 60 189 0.9 2.6 0.00 0.00 0.00 87 1019.9
20260902083106 60 189 0.9 3.5 0.00 0.00 0.00 87 1020.0
20260902082600 59 189 0.0 3.5 0.00 0.00 0.00 89 1020.0
20260902082057 59 0 0.9 3.5 0.00 0.00 0.00 89 1020.0
20260902081601 59 189 0.9 3.5 0.00 0.00 0.00 89 1020.0
20260902081057 59 188 0.9 4.3 0.00 0.00 0.00 90 1020.1
20260902080557 59 188 0.9 4.3 0.00 0.00 0.00 90 1019.9
20260902080059 59 188 0.9 4.3 0.00 0.00 0.00 90 1020.0
20260902075556 58 190 0.9 4.3 0.00 0.00 0.00 91 1019.9
20260902075058 58 185 0.9 3.5 0.00 0.00 0.00 92 1019.9
20260902074613 58 178 0.9 3.5 0.00 0.00 0.00 92 1019.9
20260902074056 57 178 0.0 3.5 0.00 0.00 0.00 93 1019.8
20260902073558 57 178 0.9 4.3 0.00 0.00 0.00 93 1019.8
20260902073104 57 178 0.9 4.3 0.00 0.00 0.00 93 1019.8
20260902072556 57 178 0.0 4.3 0.00 0.00 0.00 94 1019.8